Home   Weather   Fosnavåg   Past weeks

Flag for Norway Past Weather in Fosnavåg, Norway — Yesterday and Last 2 Weeks

Now
67 °F

Mild.


Feels Like: 67 °F
Forecast: 56 / 62 °F
Wind: 9 mph from South

Location: Svinoy Fyr

Current Time: Sep 25, 2016 at 9:16:18 PM

Latest Report: Sep 25, 2016 at 8:00 PM


Visibility: N/A

Pressure: 29.72 "Hg

Humidity: 45%

Dew Point: 45 °F

Location of FosnavågLocation

Past Weather in Fosnavåg — Graph

°F

Fosnavåg Temperature Yesterday

Maximum temperature yesterday: 63 °F (at 4:00 PM)
Minimum temperature yesterday: 55 °F (at 1:00 AM)
Average temperature yesterday: 59 °F

High & Low Weather Summary for the Past Weeks

 TemperatureHumidityPressure
High69 °F (Sep 16, 1:00 PM)97% (Sep 14, 4:00 AM)30.19 "Hg (Sep 14, 4:00 AM)
Low53 °F (Sep 23, 3:00 PM)45% (Sep 12, 4:00 PM)29.63 "Hg (Sep 11, 7:00 AM)
Average60 °F77%29.99 "Hg
* Reported Sep 10 8:00 PM — Sep 25 8:00 PM, Fosnavåg, Weather by CustomWeather, © 2016

Note: Actual official high and low records may vary slightly from our data, if they occured in-between our weather recording intervals... More about our weather records

Advertising

Fosnavåg Weather History for the Previous 24 Hours

Scroll right to see more
 ConditionsComfort  
Time TempWeatherWind HumidityBarometerVisibility
8:00 PM
Sun, Sep 25
67 °FMild.9 mph45%29.72 "HgN/A
7:00 PM68 °FMild.12 mph47%29.72 "HgN/A
6:00 PM68 °FMild.12 mph49%29.72 "HgN/A
5:00 PM68 °FMild.8 mph53%29.72 "HgN/A
4:00 PM68 °FMild.9 mph56%29.72 "HgN/A
3:00 PM68 °FMild.14 mph52%29.72 "HgN/A
2:00 PM68 °FMild.14 mph54%29.73 "HgN/A
1:00 PM68 °FMild.13 mph56%29.73 "HgN/A
12:00 PM68 °FMild.16 mph53%29.72 "HgN/A
11:00 AM66 °FMild.17 mph55%29.72 "HgN/A
10:00 AM66 °FMild.17 mph57%29.72 "HgN/A
9:00 AM65 °FMild.16 mph57%29.72 "HgN/A
8:00 AM65 °FMild.14 mph60%29.72 "HgN/A
7:00 AM64 °FMild.15 mph61%29.71 "HgN/A
6:00 AM64 °FMild.18 mph61%29.70 "HgN/A
5:00 AM65 °FMild.18 mph61%29.72 "HgN/A
4:00 AM65 °FMild.18 mph62%29.71 "HgN/A
3:00 AM64 °FMild.17 mph67%29.73 "HgN/A
2:00 AM63 °FMild.16 mph67%29.73 "HgN/A
1:00 AM63 °FMild.17 mph70%29.72 "HgN/A
12:00 AM63 °FMild.17 mph71%29.72 "HgN/A
11:00 PM
Sat, Sep 24
61 °FCool.16 mph77%29.74 "HgN/A
10:00 PM59 °FCool.15 mph84%29.75 "HgN/A
9:00 PM62 °FCool.16 mph71%29.73 "HgN/A
Weather by CustomWeather, © 2016

See weather overviewHow to use our weather pages